Weather History for KWRI - May, 2013

Change the Weather History Date:

Saturday, May 25, 2013

  Actual Average Record
Temperature  
Mean Temperature 52 °F -  
Max Temperature 61 °F 71 °F 87 °F (2007)
Min Temperature 44 °F 51 °F 44 °F (2013)
Degree Days  
Heating Degree Days 12    
Growing Degree Days 2 (Base 50)    
Moisture  
Dew Point 39 °F    
Average Humidity 71    
Maximum Humidity 93    
Minimum Humidity 38    
Precipitation  
Precipitation 0.08 in - - ()
Sea Level Pressure  
Sea Level Pressure 29.97 in    
Wind  
Wind Speed 13 mph (NW)    
Max Wind Speed 23 mph    
Max Gust Speed 39 mph    
Visibility 10 miles    
Events Rain    
Averages and records for this station are not official NWS values.
T = Trace of Precipitation, MM = Missing Value Source: NWS Daily Summary

Daily Weather History Graph

Daily Weather History Graph

Search for Another Location

Airport or City:

Trip Planner

Search our weather history database for the weather conditions in past years. The results will help you decide how hot, cold, wet, or windy it might be!

Date:

Astronomy

May. 25, 2013 Rise Set
Actual Time 5:35 AM EDT 8:16 PM EDT
Civil Twilight 5:03 AM EDT 8:47 PM EDT
Nautical Twilight 4:24 AM EDT 9:27 PM EDT
Astronomical Twilight 3:39 AM EDT 10:12 PM EDT
Moon 9:01 PM EDT (5/25) 5:59 AM EDT (5/25)
Length of Visible Light 15h 44m
Length of Day
14h 40m
Full, 100% of the Moon is Illuminated
May 25
Full
May 31
Last Quarter
Jun 8
New
Jun 16
First Quarter
Jun 23
Full

Hourly Weather History & Observations

Time (EDT) Temp. Windchill Dew Point Humidity Pressure Visibility Wind Dir Wind Speed Gust Speed Precip Events Conditions
12:03 AM 44.6 °F - 41.0 °F 87% 29.98 in - North - - N/A Rain Light Rain
12:11 AM 44.6 °F - 41.0 °F 87% 29.98 in - North - - N/A Rain Light Rain
12:18 AM 44.6 °F 37.8 °F 41.0 °F 87% 29.98 in - WNW 15.0 mph 21.9 mph N/A Rain Light Rain
12:27 AM 44.6 °F 38.8 °F 41.0 °F 87% 29.98 in 10.0 mi WNW 11.5 mph - N/A Rain Light Rain
12:43 AM 44.6 °F 38.8 °F 41.0 °F 87% 29.97 in 10.0 mi NW 11.5 mph - N/A   Mostly Cloudy
12:47 AM 44.6 °F 38.8 °F 41.0 °F 87% 29.97 in 10.0 mi NW 11.5 mph - N/A Rain Light Rain
12:58 AM 44.4 °F 38.6 °F 41.0 °F 88% 29.99 in 10.0 mi NW 11.5 mph - 0.02 in Rain Light Rain
1:25 AM 44.6 °F 39.2 °F 41.0 °F 87% 29.97 in 10.0 mi WNW 10.4 mph - N/A   Partly Cloudy
1:58 AM 44.8 °F 39.0 °F 41.5 °F 88% 29.97 in 10.0 mi WNW 11.5 mph - 0.00 in   Overcast
2:04 AM 44.6 °F 39.2 °F 41.0 °F 87% 29.96 in 10.0 mi WNW 10.4 mph - N/A   Mostly Cloudy
2:08 AM 44.6 °F 38.4 °F 41.0 °F 87% 29.95 in 10.0 mi NW 12.7 mph - N/A   Mostly Cloudy
2:09 AM 44.6 °F 38.8 °F 41.0 °F 87% 29.95 in 10.0 mi NW 11.5 mph - N/A   Mostly Cloudy
2:20 AM 44.6 °F 38.8 °F 41.0 °F 87% 29.95 in 10.0 mi WNW 11.5 mph - N/A   Mostly Cloudy
2:42 AM 44.6 °F 38.1 °F 41.0 °F 87% 29.95 in 10.0 mi NW 13.8 mph 20.7 mph N/A Rain Light Rain
2:58 AM 45.0 °F 38.2 °F 41.2 °F 87% 29.96 in 10.0 mi NW 15.0 mph 20.7 mph 0.00 in Rain Light Rain
3:00 AM 44.6 °F 38.8 °F 41.0 °F 87% 29.95 in 10.0 mi WNW 11.5 mph 20.7 mph N/A Rain Light Rain
3:02 AM 44.6 °F 38.4 °F 41.0 °F 87% 29.95 in 10.0 mi NW 12.7 mph 20.7 mph N/A Rain Light Rain
3:07 AM 44.6 °F 39.2 °F 41.0 °F 87% 29.95 in 10.0 mi WNW 10.4 mph 20.7 mph N/A   Overcast
3:18 AM 44.6 °F 38.8 °F 41.0 °F 87% 29.95 in 10.0 mi WNW 11.5 mph - N/A Rain Light Rain
3:30 AM 44.6 °F 39.2 °F 42.8 °F 93% 29.94 in 10.0 mi WNW 10.4 mph - N/A   Overcast
3:39 AM 44.6 °F 39.7 °F 41.0 °F 87% 29.95 in 10.0 mi WNW 9.2 mph - N/A Rain Light Rain
3:50 AM 44.6 °F 39.2 °F 41.0 °F 87% 29.94 in 10.0 mi WNW 10.4 mph - N/A Rain Light Rain
3:52 AM 44.6 °F 38.4 °F 41.0 °F 87% 29.94 in 10.0 mi WNW 12.7 mph - N/A Rain Light Rain
3:58 AM 45.1 °F 39.9 °F 41.4 °F 87% 29.95 in 10.0 mi WNW 10.4 mph 18.4 mph 0.01 in Rain Light Rain
4:58 AM 45.1 °F 40.8 °F 41.9 °F 88% 29.95 in 10.0 mi West 8.1 mph - 0.01 in Rain Light Rain
5:32 AM 46.4 °F 41.1 °F 41.0 °F 81% 29.94 in 10.0 mi WNW 11.5 mph - N/A Rain Light Rain
5:35 AM 46.4 °F 40.7 °F 41.0 °F 81% 29.94 in 10.0 mi WNW 12.7 mph - N/A Rain Light Rain
5:38 AM 46.4 °F 39.8 °F 41.0 °F 81% 29.94 in 10.0 mi WNW 16.1 mph 21.9 mph N/A Rain Light Rain
5:50 AM 46.4 °F 40.7 °F 41.0 °F 81% 29.95 in 10.0 mi WNW 12.7 mph 24.2 mph N/A Rain Light Rain
5:58 AM 45.5 °F 40.3 °F 40.5 °F 83% 29.96 in 10.0 mi WNW 10.4 mph - 0.01 in Rain Light Rain
6:58 AM 45.9 °F 40.0 °F 41.7 °F 85% 29.97 in 10.0 mi WNW 12.7 mph - 0.01 in Rain Light Rain
7:45 AM 48.2 °F - 42.8 °F 82% 29.95 in 10.0 mi WNW 10.4 mph 19.6 mph N/A   Mostly Cloudy
7:58 AM 48.0 °F - 41.9 °F 79% 29.96 in 10.0 mi WNW 12.7 mph - 0.02 in   Overcast
8:58 AM 50.7 °F - 40.6 °F 68% 29.97 in 10.0 mi NW 17.3 mph 29.9 mph N/A   Mostly Cloudy
9:58 AM 52.2 °F - 39.2 °F 61% 29.96 in 10.0 mi WNW 19.6 mph 31.1 mph N/A   Mostly Cloudy
10:58 AM 56.1 °F - 38.3 °F 51% 29.96 in 10.0 mi NW 23.0 mph 39.1 mph N/A   Mostly Cloudy
11:58 AM 55.2 °F - 36.5 °F 49% 29.97 in 10.0 mi WNW 18.4 mph 32.2 mph N/A   Overcast
12:58 PM 58.3 °F - 37.0 °F 45% 29.97 in 10.0 mi NW 20.7 mph 29.9 mph N/A   Mostly Cloudy
1:58 PM 59.5 °F - 37.4 °F 44% 29.96 in 10.0 mi NW 16.1 mph 29.9 mph N/A   Mostly Cloudy
2:52 PM 59.0 °F - 35.6 °F 42% 29.95 in 10.0 mi NNW 16.1 mph 26.5 mph N/A Rain Light Rain
2:58 PM 58.3 °F - 36.5 °F 44% 29.96 in 10.0 mi NNW 18.4 mph 29.9 mph 0.00 in Rain Light Rain
3:01 PM 59.0 °F - 35.6 °F 42% 29.95 in 10.0 mi North 16.1 mph 29.9 mph N/A   Mostly Cloudy
3:05 PM 57.2 °F - 37.4 °F 48% 29.95 in 10.0 mi NNW 17.3 mph 27.6 mph N/A Rain Light Rain
3:32 PM 59.0 °F - 39.2 °F 48% 29.95 in 10.0 mi WNW 13.8 mph 23.0 mph N/A   Overcast
3:58 PM 60.3 °F - 36.0 °F 40% 29.96 in 10.0 mi WNW 20.7 mph 28.8 mph 0.00 in   Mostly Cloudy
4:58 PM 61.3 °F - 36.3 °F 39% 29.96 in 10.0 mi WNW 20.7 mph 29.9 mph N/A   Overcast
5:58 PM 59.0 °F - 33.1 °F 38% 29.97 in 10.0 mi NW 12.7 mph 27.6 mph N/A   Overcast
6:58 PM 57.7 °F - 33.6 °F 40% 29.99 in 10.0 mi NW 10.4 mph - N/A   Overcast
7:58 PM 56.7 °F - 32.7 °F 40% 30.02 in 10.0 mi NNW 20.7 mph 27.6 mph N/A   Overcast
8:58 PM 54.1 °F - 33.1 °F 45% 30.03 in 10.0 mi NNW 5.8 mph - N/A   Overcast
9:58 PM 54.3 °F - 33.3 °F 45% 30.04 in 10.0 mi NW 10.4 mph - N/A   Overcast
10:58 PM 53.2 °F - 31.1 °F 43% 30.04 in 10.0 mi WNW 11.5 mph 20.7 mph N/A   Mostly Cloudy
11:58 PM 51.3 °F - 32.4 °F 48% 30.03 in 10.0 mi West 10.4 mph - N/A   Partly Cloudy